Time,TemperatureF,DewpointF,PressureIn,WindDirection,WindDirectionDegrees,WindSpeedMPH,WindSpeedGustMPH,Humidity,HourlyPrecipIn,Conditions,Clouds,dailyrainin,SoftwareType,DateUTC
2013-06-10 00:00:00,53.0,-99.9,-100.00,North,-999,-999.0,-999.0,-999,-99.99,,,0.03,,2013-06-10 07:00:00,
2013-06-10 00:52:00,53.0,-99.9,-100.00,North,-999,-999.0,-999.0,-999,-99.99,,,0.03,,2013-06-10 07:52:00,
2013-06-10 01:00:00,51.0,-99.9,-100.00,North,-999,-999.0,-999.0,-999,-99.99,,,0.03,,2013-06-10 08:00:00,
2013-06-10 01:53:00,51.0,-99.9,-100.00,North,-999,-999.0,-999.0,-999,-99.99,,,0.03,,2013-06-10 08:53:00,
2013-06-10 02:00:00,52.0,-99.9,-100.00,North,-999,-999.0,-999.0,-999,-99.99,,,-99.99,,2013-06-10 09:00:00,
2013-06-10 02:54:00,52.0,-99.9,-100.00,North,-999,-999.0,-999.0,-999,-99.99,,,-99.99,,2013-06-10 09:54:00,
2013-06-10 03:00:00,50.0,-99.9,-100.00,North,-999,-999.0,-999.0,-999,-99.99,,,0.02,,2013-06-10 10:00:00,
2013-06-10 03:53:00,50.0,-99.9,-100.00,North,-999,-999.0,-999.0,-999,-99.99,,,0.02,,2013-06-10 10:53:00,
2013-06-10 04:00:00,50.0,-99.9,-100.00,North,-999,-999.0,-999.0,-999,-99.99,,,0.03,,2013-06-10 11:00:00,
2013-06-10 04:52:00,50.0,-99.9,-100.00,North,-999,-999.0,-999.0,-999,-99.99,,,0.03,,2013-06-10 11:52:00,
2013-06-10 05:00:00,49.0,-99.9,-100.00,North,-999,-999.0,-999.0,-999,-99.99,,,0.03,,2013-06-10 12:00:00,
2013-06-10 05:53:00,49.0,-99.9,-100.00,North,-999,-999.0,-999.0,-999,-99.99,,,0.03,,2013-06-10 12:53:00,
2013-06-10 06:00:00,47.0,-99.9,-100.00,North,-999,-999.0,-999.0,-999,-99.99,,,0.02,,2013-06-10 13:00:00,
2013-06-10 06:52:00,47.0,-99.9,-100.00,North,-999,-999.0,-999.0,-999,-99.99,,,0.02,,2013-06-10 13:52:00,
2013-06-10 07:00:00,48.0,-99.9,-100.00,North,-999,-999.0,-999.0,-999,-99.99,,,0.02,,2013-06-10 14:00:00,
2013-06-10 07:52:00,48.0,-99.9,-100.00,North,-999,-999.0,-999.0,-999,-99.99,,,0.02,,2013-06-10 14:52:00,
2013-06-10 08:00:00,54.0,-99.9,-100.00,North,-999,-999.0,-999.0,-999,-99.99,,,0.02,,2013-06-10 15:00:00,
2013-06-10 08:54:00,54.0,-99.9,-100.00,North,-999,-999.0,-999.0,-999,-99.99,,,0.02,,2013-06-10 15:54:00,
2013-06-10 09:00:00,56.0,-99.9,-100.00,North,-999,-999.0,-999.0,-999,-99.99,,,0.02,,2013-06-10 16:00:00,
2013-06-10 09:53:00,56.0,-99.9,-100.00,North,-999,-999.0,-999.0,-999,-99.99,,,0.02,,2013-06-10 16:53:00,
2013-06-10 10:00:00,55.0,-99.9,-100.00,North,-999,-999.0,-999.0,-999,-99.99,,,0.03,,2013-06-10 17:00:00,
2013-06-10 10:58:00,55.0,-99.9,-100.00,North,-999,-999.0,-999.0,-999,-99.99,,,0.03,,2013-06-10 17:58:00,
2013-06-10 11:00:00,52.0,-99.9,-100.00,North,-999,-999.0,-999.0,-999,-99.99,,,0.04,,2013-06-10 18:00:00,
2013-06-10 11:56:00,52.0,-99.9,-100.00,North,-999,-999.0,-999.0,-999,-99.99,,,0.04,,2013-06-10 18:56:00,
2013-06-10 12:00:00,55.0,-99.9,-100.00,North,-999,-999.0,-999.0,-999,-99.99,,,0.06,,2013-06-10 19:00:00,
2013-06-10 12:53:00,55.0,-99.9,-100.00,North,-999,-999.0,-999.0,-999,-99.99,,,0.06,,2013-06-10 19:53:00,
2013-06-10 13:00:00,56.0,-99.9,-100.00,North,-999,-999.0,-999.0,-999,-99.99,,,0.04,,2013-06-10 20:00:00,
2013-06-10 13:53:00,56.0,-99.9,-100.00,North,-999,-999.0,-999.0,-999,-99.99,,,0.04,,2013-06-10 20:53:00,
2013-06-10 14:00:00,59.0,-99.9,-100.00,North,-999,-999.0,-999.0,-999,-99.99,,,0.02,,2013-06-10 21:00:00,
2013-06-10 14:54:00,59.0,-99.9,-100.00,North,-999,-999.0,-999.0,-999,-99.99,,,0.02,,2013-06-10 21:54:00,
2013-06-10 15:00:00,54.0,-99.9,-100.00,North,-999,-999.0,-999.0,-999,-99.99,,,0.00,,2013-06-10 22:00:00,
2013-06-10 15:53:00,54.0,-99.9,-100.00,North,-999,-999.0,-999.0,-999,-99.99,,,0.00,,2013-06-10 22:53:00,
2013-06-10 16:00:00,51.0,-99.9,-100.00,North,-999,-999.0,-999.0,-999,-99.99,,,-99.99,,2013-06-10 23:00:00,
2013-06-10 16:52:00,51.0,-99.9,-100.00,North,-999,-999.0,-999.0,-999,-99.99,,,-99.99,,2013-06-10 23:52:00,
2013-06-10 17:00:00,52.0,-99.9,-100.00,North,-999,-999.0,-999.0,-999,-99.99,,,-99.99,,2013-06-11 00:00:00,
2013-06-10 17:52:00,52.0,-99.9,-100.00,North,-999,-999.0,-999.0,-999,-99.99,,,-99.99,,2013-06-11 00:52:00,
2013-06-10 18:00:00,53.0,-99.9,-100.00,North,-999,-999.0,-999.0,-999,-99.99,,,0.00,,2013-06-11 01:00:00,
2013-06-10 18:53:00,53.0,-99.9,-100.00,North,-999,-999.0,-999.0,-999,-99.99,,,0.00,,2013-06-11 01:53:00,
2013-06-10 19:00:00,50.0,-99.9,-100.00,North,-999,-999.0,-999.0,-999,-99.99,,,0.00,,2013-06-11 02:00:00,
2013-06-10 19:52:00,50.0,-99.9,-100.00,North,-999,-999.0,-999.0,-999,-99.99,,,0.00,,2013-06-11 02:52:00,
2013-06-10 20:00:00,48.0,-99.9,-100.00,North,-999,-999.0,-999.0,-999,-99.99,,,0.00,,2013-06-11 03:00:00,
2013-06-10 20:54:00,48.0,-99.9,-100.00,North,-999,-999.0,-999.0,-999,-99.99,,,0.00,,2013-06-11 03:54:00,
2013-06-10 21:00:00,46.0,-99.9,-100.00,North,-999,-999.0,-999.0,-999,-99.99,,,0.00,,2013-06-11 04:00:00,
2013-06-10 21:53:00,46.0,-99.9,-100.00,North,-999,-999.0,-999.0,-999,-99.99,,,0.00,,2013-06-11 04:53:00,
2013-06-10 22:00:00,46.0,-99.9,-100.00,North,-999,-999.0,-999.0,-999,-99.99,,,0.00,,2013-06-11 05:00:00,
2013-06-10 22:53:00,46.0,-99.9,-100.00,North,-999,-999.0,-999.0,-999,-99.99,,,0.00,,2013-06-11 05:53:00,
2013-06-10 23:00:00,47.0,-99.9,-100.00,North,-999,-999.0,-999.0,-999,-99.99,,,0.00,,2013-06-11 06:00:00,
2013-06-10 23:52:00,47.0,-99.9,-100.00,North,-999,-999.0,-999.0,-999,-99.99,,,0.00,,2013-06-11 06:52:00,